SCP
4 4 3 3 3 3 3 2 2 1 1 2 2 2 1 1 1 2 2 1 1 0 0 0 0 0 0 0 0 0 0 0 0 0 0 1 1 1
4 4 3 3 3 3 3 2 2 2 2 2 2 2 2 2 1 2 2 1 1 0 0 0 0 0 0 0 0 0 0 0 0 0 0 0 0 1
4 3 3 3 3 4 3 3 2 2 2 2 2 2 2 2 2 2 2 2 1 1 0 0 0 0 0 0 0 0 0 0 0 0 0 0 0 0
3 3 3 3 3 3 3 3 3 3 2 2 2 3 3 3 3 3 3 3 2 1 0 0 0 0 0 0 0 0 0 0 0 0 0 0 0 0
2 2 2 2 2 2 3 3 3 3 3 2 2 3 3 3 3 3 3 4 4 2 1 0 0 0 0 0 0 0 0 0 0 0 0 0 0 0
2 2 2 2 2 2 2 2 2 3 3 3 2 3 3 3 3 3 4 5 5 3 2 1 1 1 1 0 0 0 0 0 0 0 0 0 0 0
2 2 1 1 1 1 1 2 2 2 3 3 2 2 2 3 3 3 3 4 4 3 2 2 2 2 2 1 0 0 0 0 0 0 0 0 0 0
2 2 2 1 1 1 1 1 1 1 2 2 2 2 2 2 2 2 3 3 3 2 2 2 2 3 3 2 1 0 0 0 0 0 0 0 0 0
2 2 2 1 1 1 1 1 1 1 1 1 1 1 1 2 2 2 2 2 1 1 1 1 2 2 2 2 1 0 0 0 0 0 0 0 0 0
2 2 2 1 1 1 2 1 1 1 1 1 1 1 1 1 1 1 1 1 1 1 1 1 1 2 2 2 1 0 0 0 0 0 0 0 0 0
2 2 2 1 1 1 2 2 1 1 1 1 1 1 0 0 1 1 1 1 1 1 1 2 2 2 2 3 3 2 0 0 0 0 0 0 0 0
2 2 1 1 1 1 1 1 1 1 1 1 0 0 0 0 0 0 1 1 1 1 1 2 2 2 2 3 4 3 1 0 0 0 0 0 0 0
2 1 1 1 0 0 0 0 0 0 0 0 0 0 0 0 0 0 0 0 1 1 1 1 1 1 2 2 2 2 2 1 1 1 1 0 0 0
1 1 1 0 0 0 0 0 0 0 0 0 0 0 0 0 0 0 0 0 0 0 0 0 1 1 1 1 1 1 1 2 2 2 2 1 1 0
1 1 0 0 0 0 0 0 0 0 0 0 0 0 0 0 0 0 0 0 0 0 0 0 0 0 0 0 0 0 1 1 2 2 2 2 1 1
0 0 0 0 0 0 0 0 0 0 0 0 0 0 0 0 0 0 0 0 0 0 0 0 0 0 0 0 0 0 0 0 1 1 1 1 1 0
0 0 0 0 0 0 0 0 0 0 0 0 0 0 0 0 0 0 0 0 0 0 0 0 0 0 0 0 0 0 0 0 0 0 0 0 0 0
0 0 0 0 0 0 0 0 0 0 0 0 0 0 0 0 0 0 0 0 0 0 0 0 0 0 0 0 0 0 0 0 0 0 0 0 0 0
0 0 0 0 0 0 0 0 0 0 0 0 0 0 0 0 0 0 0 0 0 0 0 0 0 0 0 0 0 0 0 0 0 0 0 0 0 0
0 0 0 0 1 1 1 1 0 0 0 0 0 0 0 0 0 0 0 0 0 0 0 0 0 0 0 0 0 0 0 0 0 0 0 0 0 0
0 1 1 1 1 1 1 1 1 0 0 0 0 0 0 0 0 0 0 0 0 0 0 0 0 0 0 0 0 0 0 0 0 0 0 0 0 0
1 1 1 1 1 1 1 1 1 1 1 0 0 0 0 0 0 0 0 0 0 0 0 0 0 0 0 0 0 0 0 0 0 0 0 0 0 0
1 1 1 1 1 1 1 1 1 1 1 0 0 0 0 0 0 0 0 0 0 0 0 0 0 0 0 0 0 0 0 0 0 0 0 0 0 0
Wind_Speed
6 7 6 5 5 5 5 6 6 6 5 4 4 3 3 3 2 4 4 4 5 5 5 5 5 5 6 6 6 7 7 7 7 7 7 8 8 9
5 5 6 5 5 5 5 5 5 6 6 4 3 3 2 3 2 3 3 5 5 5 5 4 4 4 4 4 5 5 5 5 5 6 6 7 7 8
5 5 6 6 4 4 4 5 4 5 6 5 4 3 2 3 2 3 3 3 3 6 5 4 3 2 2 3 3 3 4 4 4 5 5 5 5 6
4 4 4 4 4 4 3 4 4 4 5 6 4 3 2 2 2 2 2 1 0 5 6 4 3 2 2 1 1 1 1 2 2 2 3 3 3 4
2 3 4 4 4 3 3 3 3 3 3 4 4 2 2 2 1 1 0 1 1 3 5 5 4 4 4 3 3 2 2 1 1 1 1 1 1 1
1 2 3 3 4 3 3 3 3 3 2 2 2 2 1 1 1 1 0 0 1 1 2 2 5 6 5 4 3 3 2 2 2 2 2 1 1 1
1 2 3 4 6 4 3 3 2 2 1 1 1 1 1 1 1 1 0 0 0 0 0 0 1 1 3 4 4 3 3 2 2 2 1 1 1 1
2 2 3 4 5 7 7 7 5 3 2 1 1 1 2 2 1 1 1 1 1 1 1 1 1 1 1 2 4 4 3 3 3 2 2 1 0 0
3 3 3 4 4 5 7 7 8 8 6 3 3 3 3 3 2 2 2 2 2 2 2 1 1 0 1 4 6 5 4 3 2 1 1 1 1 2
5 5 5 5 5 4 6 8 8 8 7 6 5 5 5 4 2 1 0 1 1 1 2 1 1 1 1 3 6 5 4 3 2 1 1 1 2 3
7 8 7 7 8 6 7 7 7 6 8 9 8 7 7 7 5 2 2 1 1 2 3 2 2 1 1 2 4 5 4 3 2 1 0 1 3 5
7 8 11 9 9 7 6 6 7 6 5 6 5 5 5 6 6 5 4 3 2 2 3 3 2 2 1 1 1 1 2 4 4 3 1 1 4 4
6 6 8 10 10 9 7 7 5 3 4 5 5 5 5 5 6 6 6 5 4 4 4 3 3 3 3 2 1 1 2 2 0 2 3 2 1 3
6 7 8 8 9 9 8 7 5 3 4 4 5 5 5 5 6 6 6 6 5 5 5 5 4 4 4 3 2 2 2 3 3 3 3 2 2 2
8 10 8 6 6 8 8 5 3 3 4 4 5 5 5 5 4 3 3 3 2 3 5 5 4 4 4 3 3 3 3 3 3 4 3 3 3 2
7 8 6 5 6 6 5 4 4 5 5 4 4 4 3 3 3 4 3 3 2 3 4 4 5 5 4 4 4 4 4 3 4 4 4 3 3 3
4 5 5 5 5 5 5 5 4 4 4 4 4 4 4 4 4 4 4 4 4 4 3 2 2 2 3 4 4 4 4 3 3 3 3 2 2 2
3 5 5 4 4 4 4 4 4 4 4 4 4 4 4 4 4 4 4 4 4 4 4 4 4 3 1 2 4 5 4 4 4 3 4 3 2 2
4 5 4 4 4 3 3 3 4 4 4 4 4 4 4 4 4 4 4 4 4 5 5 5 5 5 5 3 2 3 6 5 4 4 4 4 4 3
4 4 4 3 3 3 3 3 3 3 3 3 3 3 4 4 4 4 4 6 5 5 4 4 5 6 6 6 5 3 2 5 5 5 5 4 2 1
4 4 3 3 3 3 3 3 3 3 3 3 3 3 4 4 4 4 4 3 5 4 5 4 4 4 5 4 4 3 3 1 2 4 6 5 4 2
3 3 3 3 3 3 3 2 2 2 2 3 3 3 4 4 4 5 5 5 4 5 5 4 3 3 4 4 5 4 3 2 2 4 1 3 5 5
3 3 3 3 3 2 3 3 4 3 3 4 3 4 4 4 4 4 4 5 5 5 5 5 4 4 4 4 4 4 5 4 3 2 1 4 6 6
Wind_Direction
241 241 247 251 250 250 251 255 265 270 264 247 238 236 241 243 229 230 231 168 177 192 204 212 221 230 232 236 239 241 241 242 244 247 251 251 251 252
239 247 252 255 254 254 252 251 250 260 269 283 275 274 272 269 199 229 216 159 162 182 191 199 212 227 234 234 237 240 240 240 240 243 247 250 250 251
237 238 245 255 254 253 252 254 252 249 256 268 278 282 265 275 277 259 245 238 186 168 178 181 186 199 219 226 235 242 241 239 239 241 244 246 248 255
242 254 263 260 254 262 260 257 256 252 254 260 264 272 274 271 275 282 293 286 280 123 139 139 141 147 157 160 192 221 237 235 232 241 241 243 242 249
261 270 277 280 274 272 267 268 268 260 252 255 262 267 273 286 283 271 315 341 331 106 123 125 121 118 108 104 106 108 103 92 63 39 6 323 295 272
292 295 297 296 289 283 271 270 272 272 260 256 266 270 277 303 293 269 302 20 350 26 43 85 121 127 116 108 94 90 94 97 88 74 59 35 11 359
39 26 32 29 27 10 347 338 315 296 286 271 276 302 342 348 320 305 314 307 67 358 304 246 143 134 134 120 91 74 81 90 92 90 81 63 36 17
58 55 64 58 65 66 54 45 28 5 347 345 2 20 5 353 356 335 306 298 313 354 313 331 346 15 49 71 78 87 84 81 79 77 74 67 25 315
61 55 53 60 62 80 82 74 58 49 39 27 43 25 17 11 359 11 10 348 353 350 317 304 332 33 88 84 88 91 89 83 77 67 54 1 313 290
61 54 60 54 41 58 77 71 62 51 49 55 55 42 35 22 14 27 27 111 123 55 333 320 353 341 89 114 119 115 113 112 101 64 327 301 294 287
71 59 56 63 41 50 83 83 76 72 73 71 66 64 55 36 9 6 5 343 36 62 17 330 328 312 224 139 133 153 160 164 169 176 232 306 292 263
81 73 59 54 45 37 71 75 72 64 65 75 73 73 67 62 40 19 4 359 5 41 33 330 331 324 305 88 47 142 167 172 177 174 171 340 324 296
84 79 68 59 58 49 54 61 49 34 69 71 72 65 60 53 47 43 24 12 10 26 20 335 328 325 316 321 330 16 2 2 22 151 160 146 351 328
77 78 79 71 69 61 60 47 23 10 61 63 59 50 46 43 43 41 38 34 28 29 15 351 338 336 321 322 345 357 1 357 354 3 19 127 148 136
78 81 87 89 97 82 68 44 36 48 52 54 55 49 44 37 31 46 59 52 53 43 37 9 349 340 327 336 345 353 346 353 5 4 2 3 17 25
100 111 116 91 83 86 84 63 49 41 32 42 40 40 34 34 23 16 12 9 18 50 52 27 7 348 341 357 350 351 351 351 358 6 360 359 14 23
102 103 91 86 78 72 66 57 51 53 42 37 32 28 26 23 19 14 3 357 0 6 18 21 9 0 10 347 345 352 349 349 357 359 327 336 4 32
83 90 83 76 71 66 64 63 54 44 33 29 28 23 17 11 8 7 360 358 2 1 2 0 347 327 277 90 14 346 345 346 349 342 317 321 344 34
86 82 76 69 63 59 54 49 50 46 24 20 19 15 6 1 359 1 3 356 355 355 356 355 349 338 331 348 54 18 346 340 335 339 340 338 340 6
75 76 74 69 61 49 45 41 40 39 22 13 13 7 358 353 353 351 1 354 347 346 348 357 358 349 341 337 337 357 12 342 343 340 337 330 337 30
77 74 67 59 54 47 38 33 28 25 12 357 10 359 352 347 347 342 350 349 323 333 338 357 10 312 301 304 311 345 26 69 335 329 329 320 317 303
72 73 62 49 44 34 28 15 13 22 12 354 2 348 344 342 341 335 337 334 332 338 337 341 336 313 317 327 328 333 342 345 174 183 249 318 329 332
57 50 49 43 39 20 11 12 6 9 3 351 347 339 339 338 331 332 333 330 333 338 333 332 334 330 330 328 325 329 335 333 330 313 171 180 203 220